Location: Lac de la Montange Noire
(46.1952°N, 74.2701°W)
Time: 03:05:27
(UTC-04:00)

Iridium 42 - Visible Passes

Search period start: 19 April 2014 00:00
Search period end: 29 April 2014 00:00
Orbit: 776 x 779 km, 86.4° (Epoch: 18 April)

Date Brightness Start Highest point End Pass type
(mag) Time Alt. Az. Time Alt. Az. Time Alt. Az.
19 Apr 5.6 20:34:23 10° S 20:39:30 63° E 20:44:40 10° N visible
19 Apr 8.1 22:17:12 10° WSW 22:20:43 18° WNW 22:24:15 10° NNW visible
20 Apr 7.4 21:42:18 10° SW 21:46:52 30° WNW 21:51:28 10° NNW visible
21 Apr 6.4 21:08:05 10° SSW 21:13:09 53° W 21:18:16 10° N visible
22 Apr 5.6 20:34:22 10° S 20:39:35 88° E 20:44:49 10° N visible
22 Apr 8.4 22:18:44 10° W 22:21:05 13° WNW 22:23:26 10° NW visible
23 Apr 8.0 21:43:08 10° SW 21:47:09 22° WNW 21:51:11 10° NNW visible
24 Apr 7.1 21:08:32 10° SSW 21:13:21 38° W 21:18:12 10° NNW visible
25 Apr 6.0 20:34:32 10° SSW 20:39:41 66° W 20:44:54 10° N visible
26 Apr 8.4 21:44:17 10° WSW 21:47:28 16° WNW 21:50:40 10° NNW visible
27 Apr 7.8 21:09:11 10° SW 21:13:35 27° WNW 21:18:01 10° NNW visible
28 Apr 6.8 20:34:51 10° SSW 20:39:51 47° W 20:44:53 10° N visible
